This is the latest recevied weather packets stored in our database for station/object K9COE-11. If no packets are shown the sender has not sent any weather packets the latest 10 day(s).
| Time | Temp. | Humidity | Pressure | Rain* | Wind** | Luminosity | Snow |
|---|---|---|---|---|---|---|---|
| 1778082233 | 16.11° C | 63% | - | 0 mm | - | - | - |
| 1778082105 | 16.67° C | 62% | - | 0 mm | - | - | - |
| 1778082020 | 16.67° C | 64% | - | 0 mm | - | - | - |
| 1778081975 | 16.67° C | 64% | - | 0 mm | - | - | - |
| 1778081853 | 15.56° C | 65% | - | 0 mm | - | - | - |
| 1778081726 | 15.56° C | 66% | - | 0 mm | - | - | - |
| 1778081597 | 15.56° C | 67% | - | 0 mm | - | - | - |
| 1778081345 | 15.56° C | 67% | - | 0 mm | - | - | - |
| 1778081221 | 15.56° C | 65% | - | 0 mm | - | - | - |
| 1778080713 | 15° C | 71% | - | 0 mm | - | - | - |
| 1778080584 | 15° C | 70% | - | 0 mm | - | - | - |
| 1778080455 | 15° C | 73% | - | 0 mm | - | - | - |
| 1778080332 | 14.44° C | 73% | - | 0 mm | - | - | - |
| 1778080216 | 14.44° C | 74% | - | 0 mm | - | - | - |
| 1778080074 | 14.44° C | 74% | - | 0 mm | - | - | - |
| 1778079812 | 13.89° C | 76% | - | 0 mm | - | - | - |
| 1778079431 | 13.89° C | 77% | - | 0 mm | - | - | - |
| 1778079302 | 13.89° C | 78% | - | 0 mm | - | - | - |
| 1778079173 | 13.33° C | 77% | - | 0 mm | - | - | - |
| 1778079043 | 13.33° C | 81% | - | 0 mm | - | - | - |
| 1778078791 | 12.78° C | 83% | - | 0 mm | - | - | - |
| 1778078662 | 12.22° C | 83% | - | 0 mm | - | - | - |
| 1778078530 | 12.22° C | 85% | - | 0 mm | - | - | - |
| 1778078400 | 12.22° C | 85% | - | 0 mm | - | - | - |
| 1778078271 | 11.67° C | 87% | - | 0 mm | - | - | - |
* Rain latest 24 hours (hover to see other rain measurements)
** Current wind speed in m/s (hover to see current wind gust speed)